Tracking 19795 objects as of 20-Jul-2019
HD Live streaming from Space Station
objects crossing your sky now

CZ-4 DEB

Track CZ-4 DEB now!
10-day predictions


NORAD ID: 27385
Int'l Code: 1999-057MK
Perigee: 555.5 km
Apogee: 619.6 km
Inclination: 98.0 °
Period: 96.3 minutes
Semi major axis: 6958 km
RCS: 0.0017 m2 (small)
Launch date: October 14, 1999
Source: People's Republic of China (PRC)
Launch site: Taiyaun Space Center, China (TSC)

Note: This is SATELLITE DEBRIS
aabbcc
Your satellite tracking list
Your tracking list is empty




NASA's NSSDC Master Catalog

Two Line Element Set (TLE):
1 27385U 99057MK  19201.08899061  .00001658  00000-0  15171-3 0  9997
2 27385  97.9592 245.9159 0046085  81.2856 279.3580 14.95623754995212
Source of the keplerian elements: AFSPC